Location: Namasale
(1.5000°N, 32.6167°E)
Time: 22:16:11
(UTC+00:00)

Hubble Space Telescope - Pass Details

Date: 03 December 2021
Orbit: 535 x 538 km, 28.5° (Epoch: 24 January)

Event Time Altitude Azimuth Distance (km) Brightness Sun altitude
Rises 17:20:23 0° 217° (SW) 2,673 5.3 -23.8°
Reaches altitude 10° 17:23:05 10° 200° (SSW) 1,781 4.0 -24.5°
Enters shadow 17:25:25 19° 167° (SSE) 1,288 2.8 -25.0°
